Location: Allens Chapel
(33.6459°N, 95.9605°W)
Time: 06:16:32
(UTC+00:00)

Hubble Space Telescope - Visible Passes

Search period start: 11 October 2024 00:00
Search period end: 21 October 2024 00:00
Orbit: 503 x 507 km, 28.5° (Epoch: 10 October)

Date Brightness Start Highest point End Pass type
(mag) Time Alt. Az. Time Alt. Az. Time Alt. Az.
14 Oct 3.2 01:33:48 10° S 01:34:17 11° S 01:34:17 11° S visible
15 Oct 2.7 01:11:57 10° SSW 01:14:10 15° SSE 01:14:10 15° SSE visible
16 Oct 2.6 00:50:08 10° SSW 00:52:38 16° SSE 00:53:57 14° SE visible
17 Oct 2.6 00:28:18 10° SSW 00:30:59 18° SSE 00:33:39 10° ESE visible
17 Oct 3.3 02:07:22 10° WSW 02:08:17 16° SW 02:08:17 16° SW visible
18 Oct 2.4 01:45:41 10° WSW 01:47:55 27° SW 01:47:55 27° SW visible
19 Oct 1.6 01:23:58 10° WSW 01:27:28 36° S 01:27:28 36° S visible
20 Oct 1.5 01:02:14 10° WSW 01:05:52 37° S 01:06:58 30° SE visible
